[[{"header":{"parameterUnit":"m.s-1","parameterCategory":1,"la1":30.2991,"la2":30.254,"lo1":-89.0895,"lo2":-89.0444,"dy":0.0017,"dx":0.0017,"nx":28,"ny":28,"refTime":"2025-07-09T09:00:00:Z","depth":0,"parameterNumber":2,"parameterNumberName":"U-component_of_WINDS"},"data":[0,0,0,0,0,0,0,0,0,0,0,0,0,0,0,0,0,0,0,0,0,0,0,0,0,0,0,0,0,0,0,0,0,0,0,0,0,0,0,0,0,0,0,0,0,0,0,0,0,0,0,0,0,0,0,0,0,0,2.5711,2.5712,0,2.5756,2.5756,2.5757,2.5746,2.5745,2.5744,2.5743,2.5792,2.5795,2.5797,0,0,0,0,0,0,0,0,0,0,0,0,0,2.562,2.5622,2.5711,2.5712,2.5713,2.5756,2.5756,2.5757,2.5746,2.5745,2.5744,2.5743,2.5792,2.5794,2.5797,0,0,0,0,0,0,0,0,0,0,0,0,0,2.5662,2.5623,2.5711,2.5712,2.5713,2.5756,2.5756,2.5757,2.5746,2.5745,2.5743,2.5742,2.5791,2.5794,2.5797,2.5843,0,0,2.5807,2.5808,0,0,0,0,0,0,0,0,2.566,2.5665,2.5711,2.5712,2.5713,2.5744,2.5742,2.5786,2.5746,2.5733,2.5743,2.5742,2.5778,2.5782,2.5793,2.5846,2.5848,2.5807,2.5809,2.5811,2.5812,0,0,0,0,0,0,0,2.5657,2.5663,2.5729,2.5712,2.5713,2.5711,2.5716,2.5751,2.5763,2.5734,2.5734,2.5739,2.5778,2.579,2.5794,2.5849,2.5807,2.581,2.5812,2.5813,2.5941,2.5942,0,0,0,0,0,0,2.5653,2.5661,2.5728,2.573,2.5682,2.5714,2.5719,2.5735,2.5762,2.5765,2.574,2.5738,2.5785,2.5791,2.5796,2.5852,2.5811,2.5814,2.5815,2.594,2.5941,2.5943,0,0,0,0,0,0,2.5651,2.5659,2.5726,2.5695,2.5704,2.5717,2.5735,2.5737,2.5749,2.5766,2.5769,2.575,2.5784,2.5791,2.5831,2.5853,2.5815,2.5818,2.5938,2.594,2.5942,2.5963,0,0,0,0,0,0,2.5648,2.5658,2.5675,2.5696,2.5705,2.576,2.5737,2.5739,2.5754,2.5752,2.5776,2.5779,2.5784,2.5827,2.5834,2.5857,2.582,2.5936,2.5939,2.5941,2.5961,2.5966,2.597,0,0,0,0,0,2.5645,2.568,2.5676,2.5684,2.5727,2.5761,2.5766,2.577,2.5756,2.5774,2.5784,2.5778,2.5849,2.5831,2.584,2.5863,2.5935,2.5938,2.5941,2.5959,2.5965,2.597,0,0,0,0,0,0,2.5663,2.5683,2.5679,2.5721,2.5739,2.5759,2.5781,2.5777,2.58,2.5798,2.5802,2.5808,2.5848,2.586,2.5839,2.5909,2.589,2.5895,2.59,2.5906,2.5911,2.5908,2.5823,0,0,0,0,0,2.5672,2.5697,2.5713,2.5749,2.5758,2.5768,2.5783,2.5784,2.5804,2.5812,2.5826,2.5846,2.5872,2.589,2.5916,2.5962,2.5968,2.5983,2.5988,2.5992,2.5996,2.6022,2.6029,2.5954,2.5954,2.5954,0,0,2.5691,2.5705,2.572,2.5753,2.5767,2.5794,2.5775,2.5804,2.5824,2.5817,2.5855,2.5865,2.5888,2.5932,2.5951,2.5942,2.6018,2.5996,2.5999,2.6001,2.6026,2.6033,2.6039,2.5956,2.5956,2.5955,0,0,2.5739,2.5751,2.5783,2.5797,2.5818,2.5824,2.5831,2.5852,2.5858,2.5896,2.5891,2.5915,2.5961,2.5977,2.5992,2.6045,2.604,2.6053,2.6079,2.6104,2.611,2.6115,2.6134,2.6141,2.6058,2.6058,2.6058,0,2.576,2.5798,2.58,2.5829,2.5844,2.5837,2.5869,2.5883,2.5912,2.5923,2.5912,2.5969,2.5984,2.6031,2.6043,2.6055,2.6065,2.6051,2.6108,2.6114,2.6119,2.6137,2.6144,2.6059,2.6059,2.6059,2.6059,0,2.5823,2.585,2.5873,2.59,2.5917,2.5948,2.5955,2.5972,2.5972,2.5979,2.6018,2.6036,2.6064,2.6076,2.6076,2.6123,2.6116,2.6107,2.6088,2.6127,2.6144,2.6151,2.6061,2.6061,2.606,2.606,0,0,2.5885,2.591,2.5919,2.5931,2.5953,2.5974,2.6005,2.6032,2.6047,2.6067,2.6093,2.6132,2.6123,2.6139,2.6141,2.6163,2.6204,2.6151,2.6151,2.616,2.6256,2.6263,2.6271,2.62,2.6202,2.6203,2.6254,0,2.5935,2.5987,2.5989,2.6037,2.6062,2.6055,2.6082,2.6099,2.6107,2.613,2.6139,2.6166,2.6152,2.6162,2.6183,2.6194,2.6223,2.619,2.6226,2.6227,2.622,2.628,2.6288,2.6336,2.6261,2.6262,2.6263,0,2.6,2.602,2.6071,2.6089,2.6099,2.6123,2.6147,2.6169,2.6189,2.6193,2.621,2.6209,2.6241,2.6221,2.6265,2.6243,2.6258,2.6265,2.6267,2.6271,2.6248,2.6286,2.6351,2.6358,2.6274,2.6273,2.6272,0,2.604,2.608,2.6115,2.6125,2.6147,2.6164,2.6174,2.6192,2.6208,2.623,2.624,2.6266,2.628,2.63,2.6306,2.6291,2.6351,2.6331,2.6356,2.6356,2.6369,2.6369,2.6438,2.6378,2.6378,2.6378,2.6378,0,2.6095,2.6126,2.6133,2.6155,2.6189,2.6191,2.6226,2.6235,2.6251,2.6275,2.6271,2.6294,2.6301,2.6325,2.633,2.6366,2.6373,2.6378,2.6379,2.6378,2.6378,2.6388,2.6385,2.638,2.638,2.6379,2.6379,0,2.6146,2.6151,2.6189,2.6206,2.6211,2.6236,2.6251,2.6273,2.6279,2.631,2.6317,2.6328,2.6357,2.6364,2.6399,2.6402,2.6445,2.6443,2.6438,2.6438,2.6463,2.646,2.6542,2.6553,2.6486,2.6486,2.6487,0,2.6181,2.6205,2.6224,2.6239,2.6249,2.6274,2.6289,2.6292,2.6309,2.6332,2.6351,2.6378,2.6401,2.6446,2.6458,2.6485,2.6483,2.651,2.6487,2.6486,2.6484,2.6482,2.6485,2.6514,2.6515,2.6516,2.6516,0,2.6243,2.6244,2.6266,2.6289,2.6308,2.6326,2.6344,2.6357,2.6363,2.6382,2.6409,2.6427,2.6461,2.6488,2.6515,2.6526,2.6523,2.6523,2.653,2.653,2.6526,2.6528,2.645,2.6521,2.6521,2.652,2.652,2.652,2.6287,2.6308,2.6324,2.6349,2.6362,2.6378,2.6399,2.6408,2.643,2.6458,2.6458,2.6489,2.6508,2.6542,2.6555,2.658,2.6572,2.6583,2.6585,2.6588,2.659,2.6522,2.6585,2.6585,2.6584,2.6584,2.6584,0,2.6349,2.6359,2.6381,2.6406,2.6425,2.6418,2.6437,2.6454,2.6481,2.6498,2.6519,2.6551,2.6578,2.6591,2.6618,2.6635,2.6634,2.6642,2.6641,2.6643,2.6595,2.6586,2.6642,2.6642,2.6642,2.6642,2.6642,2.6642,2.6384,2.6418,2.6421,2.6461,2.6471,2.65,2.6512,2.6527,2.654,2.6576,2.6597,2.6605,2.6621,2.6649,2.6673,2.6676,2.6686,2.6695,2.6698,2.6653,2.6647,2.6641,2.6633,2.6697,2.6697,2.6744,2.6744,2.6745]},{"header":{"parameterUnit":"m.s-1","parameterCategory":1,"la1":30.2991,"la2":30.254,"lo1":-89.0895,"lo2":-89.0444,"dy":0.0017,"dx":0.0017,"nx":28,"ny":28,"refTime":"2025-07-09T09:00:00:Z","depth":0,"parameterNumber":3,"parameterNumberName":"V-component_of_WINDS"},"data":[0,0,0,0,0,0,0,0,0,0,0,0,0,0,0,0,0,0,0,0,0,0,0,0,0,0,0,0,0,0,0,0,0,0,0,0,0,0,0,0,0,0,0,0,0,0,0,0,0,0,0,0,0,0,0,0,0,0,2.5079,2.5079,0,2.5058,2.5058,2.5057,2.5077,2.5078,2.5079,2.5079,2.5054,2.5052,2.5051,0,0,0,0,0,0,0,0,0,0,0,0,0,2.5132,2.513,2.5079,2.5079,2.5079,2.5058,2.5058,2.5057,2.5077,2.5078,2.5079,2.508,2.5054,2.5052,2.5051,0,0,0,0,0,0,0,0,0,0,0,0,0,2.5109,2.513,2.5079,2.5086,2.5086,2.5058,2.5058,2.5057,2.5077,2.5078,2.5079,2.508,2.5055,2.5052,2.505,2.5013,0,0,2.5044,2.5043,0,0,0,0,0,0,0,0,2.511,2.5107,2.5085,2.5085,2.5086,2.5071,2.5067,2.5042,2.5076,2.508,2.5079,2.5081,2.5058,2.5056,2.5049,2.5012,2.5011,2.5044,2.5042,2.5041,2.5041,0,0,0,0,0,0,0,2.5112,2.5108,2.5071,2.5085,2.5085,2.5088,2.5087,2.5062,2.5063,2.508,2.5081,2.5079,2.5059,2.5051,2.5049,2.501,2.5044,2.5042,2.504,2.504,2.4938,2.4936,0,0,0,0,0,0,2.5113,2.5109,2.5071,2.507,2.5102,2.5086,2.5084,2.5075,2.5063,2.5062,2.5078,2.508,2.5054,2.5051,2.5048,2.5001,2.5041,2.5039,2.5038,2.4939,2.4937,2.4936,0,0,0,0,0,0,2.5115,2.511,2.5072,2.509,2.5086,2.5084,2.5073,2.5074,2.5066,2.5061,2.5061,2.507,2.5055,2.5051,2.5021,2.5,2.5038,2.5036,2.4941,2.4938,2.4936,2.4908,0,0,0,0,0,0,2.5116,2.511,2.5097,2.509,2.5085,2.5047,2.5072,2.5072,2.5063,2.5065,2.5054,2.5054,2.5056,2.5024,2.5019,2.4998,2.5035,2.4942,2.494,2.4937,2.491,2.4905,2.49,0,0,0,0,0,2.5118,2.509,2.5097,2.5092,2.5069,2.5046,2.5043,2.5047,2.5061,2.5047,2.5044,2.5054,2.5004,2.5021,2.5015,2.4993,2.4944,2.494,2.4937,2.4913,2.4906,2.49,0,0,0,0,0,0,2.5094,2.5089,2.5096,2.5066,2.5056,2.505,2.5032,2.504,2.5026,2.5028,2.5033,2.503,2.4998,2.4993,2.5012,2.4955,2.4976,2.4971,2.4959,2.4952,2.4947,2.4948,2.5033,0,0,0,0,0,2.5086,2.5069,2.5065,2.5038,2.5033,2.5033,2.5024,2.5028,2.5018,2.5013,2.5008,2.4996,2.4977,2.4965,2.4948,2.491,2.4906,2.4892,2.4887,2.4883,2.4878,2.4854,2.4847,2.4925,2.4925,2.4925,0,0,2.5067,2.5062,2.5052,2.5033,2.5027,2.5007,2.503,2.5009,2.4994,2.501,2.4981,2.4976,2.4963,2.4929,2.4913,2.4923,2.4856,2.4879,2.4875,2.4873,2.485,2.4843,2.4836,2.4923,2.4923,2.4924,0,0,2.5023,2.502,2.4995,2.4988,2.4978,2.4978,2.4972,2.4963,2.4961,2.4932,2.4943,2.4924,2.4893,2.4882,2.4873,2.4823,2.4831,2.4818,2.4789,2.4766,2.476,2.4755,2.4734,2.4727,2.4813,2.4813,2.4813,0,2.5001,2.4975,2.4982,2.496,2.495,2.4964,2.4938,2.493,2.4914,2.4906,2.4918,2.4877,2.487,2.4831,2.4819,2.4812,2.4803,2.4818,2.4761,2.4755,2.475,2.473,2.4723,2.4812,2.4812,2.4812,2.4812,0,2.4946,2.4927,2.4909,2.4893,2.4882,2.4858,2.4859,2.4846,2.4851,2.4849,2.4818,2.4809,2.4789,2.4781,2.4785,2.4742,2.4748,2.4761,2.4781,2.4741,2.4722,2.4715,2.4809,2.481,2.481,2.4811,0,0,2.4887,2.4875,2.4868,2.486,2.4849,2.4833,2.4809,2.479,2.4777,2.4766,2.4743,2.4715,2.4726,2.4715,2.4718,2.4699,2.4656,2.4713,2.4713,2.47,2.4603,2.4592,2.4583,2.4661,2.466,2.4659,2.4603,0,2.484,2.4799,2.4804,2.4764,2.4745,2.4757,2.4735,2.4725,2.4722,2.4704,2.47,2.4679,2.4697,2.469,2.4671,2.4665,2.4636,2.4669,2.4637,2.4636,2.4638,2.4574,2.4563,2.4511,2.4596,2.4595,2.4594,0,2.4781,2.4767,2.4725,2.4715,2.4707,2.4688,2.4669,2.4653,2.464,2.4639,2.4626,2.4632,2.4605,2.4627,2.4588,2.461,2.4598,2.4593,2.4591,2.4586,2.4611,2.4565,2.4495,2.4486,2.4583,2.4584,2.4585,0,2.4738,2.4709,2.4679,2.4673,2.4661,2.4646,2.464,2.4629,2.4616,2.46,2.4591,2.4572,2.456,2.4544,2.4543,2.456,2.4502,2.4525,2.4497,2.4497,2.4483,2.4483,2.4407,2.4479,2.4479,2.4479,2.4479,0,2.4684,2.4657,2.466,2.4641,2.461,2.4615,2.4584,2.4579,2.4569,2.4548,2.4558,2.4537,2.4539,2.4517,2.4517,2.4482,2.4477,2.4473,2.4473,2.4471,2.4471,2.4461,2.4463,2.4477,2.4478,2.4478,2.4478,0,2.463,2.4631,2.4599,2.459,2.4587,2.4565,2.4556,2.4537,2.4535,2.4508,2.4502,2.4498,2.4473,2.4471,2.4442,2.4441,2.4398,2.4403,2.4402,2.4402,2.4373,2.4375,2.4285,2.4272,2.4356,2.4355,2.4354,0,2.4594,2.4574,2.4563,2.455,2.4543,2.4523,2.451,2.4514,2.45,2.4482,2.4465,2.4441,2.4422,2.4381,2.4373,2.435,2.4353,2.4323,2.4349,2.4347,2.4349,2.4349,2.4345,2.4317,2.4316,2.4316,2.4315,0,2.453,2.4531,2.4514,2.4495,2.448,2.4466,2.4452,2.444,2.4442,2.4425,2.44,2.4385,2.4355,2.433,2.4307,2.4299,2.4305,2.4307,2.4299,2.4295,2.4294,2.4291,2.4385,2.4309,2.4309,2.431,2.431,2.431,2.4482,2.4464,2.4452,2.4431,2.4422,2.4408,2.4389,2.4385,2.4365,2.4341,2.4344,2.4315,2.43,2.4271,2.426,2.4236,2.4245,2.4234,2.4231,2.4227,2.4223,2.4301,2.4232,2.4232,2.4232,2.4232,2.4232,0,2.4416,2.4409,2.439,2.4371,2.4353,2.4364,2.4349,2.4333,2.4308,2.4294,2.4275,2.4245,2.422,2.421,2.4186,2.4168,2.417,2.416,2.416,2.4157,2.4217,2.4225,2.4159,2.4159,2.4159,2.4159,2.4159,2.4159,2.4379,2.4347,2.4347,2.4309,2.4302,2.4275,2.4265,2.4251,2.424,2.4206,2.4186,2.4181,2.4167,2.4141,2.4118,2.4115,2.4104,2.4093,2.4091,2.4146,2.4154,2.4161,2.4168,2.4091,2.4091,2.4033,2.4033,2.4032]}]]